Location: Newark
(11.5710°N, 104.9241°E)
Time: 03:19:35
(UTC+00:00)

LightSail 2 - Visible Passes

Search period start: 21 January 2020 00:00
Search period end: 31 January 2020 00:00
Orbit: 704 x 720 km, 24.0° (Epoch: 20 January)

Date Brightness Start Highest point End Pass type
(mag) Time Alt. Az. Time Alt. Az. Time Alt. Az.
21 Jan 7.1 12:48:47 10° NW 12:51:09 18° NNW 12:51:09 18° NNW visible
22 Jan 6.8 11:50:09 10° NW 11:53:53 20° N 11:56:25 14° NE visible
23 Jan 6.7 12:37:27 10° NW 12:40:39 22° N 12:40:39 22° N visible
24 Jan 6.7 11:39:00 10° NW 11:42:51 21° N 11:45:59 13° NE visible
24 Jan 7.7 13:24:14 10° NW 13:24:56 13° NW 13:24:56 13° NW visible
25 Jan 6.2 12:25:56 10° NW 12:30:18 29° NNE 12:30:18 29° NNE visible
26 Jan 6.5 11:27:34 10° NW 11:31:45 24° N 11:35:44 11° ENE visible
26 Jan 7.0 13:12:37 10° WNW 13:14:42 23° NW 13:14:42 23° NW visible
27 Jan 5.7 12:14:18 10° NW 12:19:07 40° NNE 12:20:12 36° NE visible
28 Jan 6.1 11:15:57 10° NW 11:20:32 32° NNE 11:25:08 10° ENE visible
28 Jan 5.9 13:01:05 10° WNW 13:04:45 47° WNW 13:04:45 47° WNW visible
29 Jan 5.2 12:02:39 10° WNW 12:07:46 62° NNE 12:10:24 28° E visible
29 Jan 7.9 13:48:26 10° W 13:49:23 15° W 13:49:23 15° W visible
30 Jan 5.5 12:49:43 10° WNW 12:54:46 56° SSW 12:55:07 55° S visible
